Weather Service Report


093 
ASUS42 KFFC 280810
RWRGA 
WEATHER ROUNDUP FOR GEORGIA
NATIONAL WEATHER SERVICE PEACHTREE CITY GA
400 AM EDT FRI APR 28 2017

NOTE: "FAIR" INDICATES FEW OR NO CLOUDS BELOW 12,000 FEET WITH NO
SIGNIFICANT WEATHER AND/OR OBSTRUCTIONS TO VISIBILITY. 

* = USE WITH CAUTION. THE STATIONS MARKED WITH AN ASTERISK MAY NOT
REPORT WEATHER SUCH AS PRECIPITATION, FOG, OR THUNDER AND ARE NOT 
QUALITY CONTROLLED BY NWS.

THE REMARK "TC" DENOTES TEMPERATURE READING IN DEGREES CELSIUS.

GAZ001>058-280900-
NORTH GEORGIA
  
CITY           SKY/WX    TMP DP  RH WIND       PRES   REMARKS
ATLANTA        CLOUDY    68  67  96 SW6       29.94R FOG              
ATHENS         CLOUDY    65  65 100 CALM      29.95R                  
CHAMBLEE       CLOUDY    65  64  97 CALM      29.94R FOG              
PEACHTREE CITY CLOUDY    67  67 100 SE3       29.94R                  
ROME           CLEAR     56  53  90 CALM      29.91S                  
WEST ATLANTA   FOG       66  66 100 SW3       29.93S VSB 1            
GAINESVILLE    FOG       65  65 100 N5        29.97R VSB 1/4          
CARTERSVILLE   CLEAR     54  53  97 SE5       29.93R                  

  
CITY           SKY/WX    TMP DP  RH WIND       PRES   REMARKS
DALTON*        CLEAR     54  54 100 CALM      29.92S                  
MARIETTA       CLOUDY    65  64  96 CALM      29.94S                  
CANTON*        FOG       59  55  88 CALM      29.96R VSB 1/2          
$$

GAZ059>098-102>109-280900-
CENTRAL GEORGIA
  
CITY           SKY/WX    TMP DP  RH WIND       PRES   REMARKS
AUGUSTA-BUSH   CLEAR     67  65  93 S5        29.93S FOG              
AUGUSTA-DANIEL CLEAR     70  64  81 SE7       29.95R                  
COLUMBUS       CLOUDY    71  69  93 S5        29.91S FOG              
MACON          CLOUDY    69  67  93 SE5       29.93S FOG              
ROBINS AFB     CLOUDY    68  66  94 CALM      29.93R                  

  
CITY           SKY/WX    TMP DP  RH WIND       PRES   REMARKS
LAGRANGE*      CLOUDY    72  72 100 SW3       29.92S FOG              
SYLVANIA*      CLEAR    N/A N/A N/A CALM      29.96S                  
MILLEDGEVILLE* FOG       68  68 100 CALM      29.93S VSB 1/2          
$$

GAZ099>101-110>166-280900-
SOUTH GEORGIA
  
CITY           SKY/WX    TMP DP  RH WIND       PRES   REMARKS
SAVANNAH       PTCLDY    71  68  90 S5        29.97S                  
VALDOSTA       CLOUDY    71  70  96 S7        29.95R FOG              
ALMA           CLEAR     67  66  97 S5        29.95S                  
ST SIMONS      CLEAR     73  67  81 SW3       29.96S                  
FT STEWART     PTCLDY    68  66  93 S3        29.94S                  
ALBANY         CLEAR     70  70 100 CALM      29.93F FOG              
HUNTER AFB     CLEAR     72  72 100 CALM      29.94S                  
MOODY AFB      CLOUDY    72  70  94 SE9       29.94R                  
BRUNSWICK      FOG       68  68 100 CALM      29.98R VSB 1/4          

  
CITY           SKY/WX    TMP DP  RH WIND       PRES   REMARKS
BAINBRIDGE*      N/A     72  70  94 S3        29.92F                  
MOULTRIE*      MOCLDY    72  70  94 CALM      29.94S FOG              
VIDALIA*       CLEAR     72  66  83 CALM      29.96R                  
WAYCROSS*      CLEAR     70  70 100 CALM      29.96S                  
DOUGLAS*       CLEAR     68  66  94 SE3       29.96S FOG              
$$
  

Return to Home page


Western Regional Climate Center, wrcc@dri.edu